FENGYUN 1C DEB, 31609

Orbit data source: Space-Track

FENGYUN 1C DEB, 31609 is space debris in SSO originally from a launch on Mon, 10 May 1999 UTC launched from the Taiyaun Space Center, China (TSC). Fengyun 1C debris stems from the Chinese weather satellite Fengyun-1C, which was intentionally destroyed by a Chinese anti-satellite missile in 2007. This event dramatically increased the amount of space debris, with thousands of trackable fragments posing hazards to satellites and human spaceflight. The Fengyun 1C debris cloud has become a focal point in discussions about space sustainability and the need for international regulations to prevent the creation of new debris.

Loading next visibility...
Identifier
31609, 1999-025BZP
Orbit
SSO
Country
Flag of CNCN / PRC
Related business
Manufacturer
Unknown
Mission
Spacecraft
Bus & Motor
Unknown
Mass
Unknown
Launch date (UTC)
1999-05-10 (27 years ago)
Launch vehicle
Unknown
Launch site
Taiyaun Space Center, China (TSC)
Object type
Payload
Rocket body
Debris
Shape & HBR
Unknown shape, 0.1 m
Radar Cross Section
Small (<0.1 m²)

Expand to show TLE details & history
Last TLE update: 3 weeks ago

TLE from 3 weeks ago
0 FENGYUN 1C DEB
1 31609U 99025BZP 26154.34974949  .00003936  00000-0  18954-2 0  9991
2 31609  99.1973 193.7688 0092052 191.0805 233.5734 14.17141138685280
Epoch: 2026-06-03T08:23Z
TLE epoch observation values (Epoch: 2026-06-03T08:23:38.355Z)
Latitude
62.44386°
Longitude
158.07043°
Altitude
885.526 km
Speed
7.395 km/s
True Right ascension
11h 43m 09s
True Declination
62° 18' 18"
Sunlit
Object was in daylight at epoch
Visualization orbit readout
Latitude
Unknown
Longitude
Unknown
Altitude
Unknown
Speed
Unknown
Apparent Right ascension
Unknown
Apparent Declination
Unknown
Sunlit
N/A
Visualization observer readout
Local Sidereal Time
05:04:01
Azimuth
Unknown
Elevation
Unknown
Doppler factor
Unknown
Orbital elements
Apogee altitude
898.596 km
Perigee altitude
765.851 km
Semi-major axis
7,210.36 km
Eccentricity
0.00921
Inclination
99.1973°
RAAN
193.7688°
Arg. of periapsis
191.0805°
True anomaly
232.73045°
Mean anomaly
233.5734°
Eccentric anomaly
233.15135°
Mean motion
3.54493 °/min
Orbital period
101.55 mins
BSTAR
0.0018954
Loading maneuver chart data...
Computing Atmospheric mass density...

Documentation

Showing up to 5 results
|